Regional Weather Roundup
Issued by NWS Upton, NY

Current Version | Previous Version | Graphics & Text | Print | Product List | Glossary Off
Versions: 1 2 3 4 5 6 7 8 9 10 11 12 13 14 15 16 17 18 19 20 21 22 23 24 25 26 27

000
ASUS41 KOKX 212009
RWROKX

REGIONAL WEATHER ROUNDUP
NATIONAL WEATHER SERVICE NEW YORK NY
400 PM EDT THU SEP 21 2017

NOTE: "FAIR" INDICATES FEW OR NO CLOUDS BELOW 12,000 FEET WITH NO
SIGNIFICANT WEATHER AND/OR OBSTRUCTIONS TO VISIBILITY.

NYZ071-072-176-178-NJZ106-104-212100-
NEW YORK CITY METRO AREA

CITY           SKY/WX    TMP DP  RH WIND       PRES   REMARKS
Central Park   CLOUDY    80  63  55 VRB7      30.01F
Bronx Bot Gard   N/A    N/A N/A N/A N14       30.00S
LaGuardia APRT CLOUDY    79  64  60 N13       29.97F
Kennedy INTL   PTSUNNY   80  64  58 N16       29.98F
Breezy Point     N/A     77 N/A N/A N9          N/A
Newark/Liberty PTSUNNY   82  61  48 N10       29.98S
Teterboro      CLOUDY    82  62  50 NE9       29.97S
$$

NYZ177-179-078>081-212100-
LONG ISLAND NEW YORK

CITY           SKY/WX    TMP DP  RH WIND       PRES   REMARKS
Jones Beach      N/A     75 N/A N/A N14G21      N/A
Matinecock PT    N/A     75 N/A N/A N13         N/A
Farmingdale    PTSUNNY   76  62  62 N16G23    29.97F
MacArthur/ISP  CLOUDY    75  63  66 N16       29.96S
Shirley        CLOUDY    75  63  66 N14G22    29.96S
Mt Sinai Harb    N/A    N/A N/A N/A N13         N/A
Westhampton    CLOUDY    72  58  61 N16G22    29.96S
East Hampton   FAIR      70  57  63 N15G24    29.93R
Montauk          N/A     71  56  58 N15G29    29.93S
$$

NYZ052-065-067-212100-
HUDSON VALLEY

CITY           SKY/WX    TMP DP  RH WIND       PRES   REMARKS
White Plains   CLOUDY    77  64  64 N10       29.99F
Larchmont Harb   N/A     77 N/A N/A NW12        N/A
Croton On Huds   N/A     79 N/A N/A N3G13       N/A
Newburgh       PTSUNNY   77  63  61 NE14      30.03S
Montgomery     CLOUDY    79  64  60 N5        30.01S
Poughkeepsie   CLOUDY    78  62  57 N9        30.00S
Albany         PTSUNNY   79  60  52 N12       30.04S
$$

NJZ001-105-106-008-010-013-015-019>022-104-212100-
NEW JERSEY

CITY           SKY/WX    TMP DP  RH WIND       PRES   REMARKS
Newark/Liberty PTSUNNY   82  61  48 N10       29.98S
Teterboro      CLOUDY    82  62  50 NE9       29.97S
Caldwell       CLOUDY    80  62  54 VRB5      30.00S
Somerville     NOT AVBL
Linden         FAIR      82  55  39 NE10      29.98S
Perth Amboy      N/A     81 N/A N/A NE7         N/A
Sussex         PTSUNNY   81  66  60 NE5       30.01S
Andover          N/A     82  65  56 VRB5      30.01F
Trenton        MOSUNNY   84  63  49 NE7       29.98F
Millville      MOSUNNY   87  64  46 N7        29.97F
Atlantic City  MOSUNNY   83  63  50 NE8       29.97F
Wrightstown    PTSUNNY   81  64  55 N9        29.95F
Toms River     CLOUDY    79  66  64 N7        29.99F
Belmar         MOSUNNY   79  64  60 N8        30.00S
$$

PAZ047>061-062-071-212100-
EASTERN PENNSYLVANIA

CITY           SKY/WX    TMP DP  RH WIND       PRES   REMARKS
Philadelphia   PTSUNNY   87  60  40 VRB3      29.98F
Allentown      MOSUNNY   86  62  44 CALM      29.99F
Scranton       CLOUDY    83  65  54 N7        30.05S
$$

CTZ002-004>006-009-010-012-RIZ004-006-007-MAZ004-011-015-212100-
SOUTHERN NEW ENGLAND
 IN CT

CITY           SKY/WX    TMP DP  RH WIND       PRES   REMARKS
Bradley INTL   CLOUDY    76  56  49 NE12      30.01R
Hartford       CLOUDY    75  59  57 NE14      29.99S
Danbury        CLOUDY    77  64  64 N8        30.01F
Wtrbury/Oxford CLOUDY    73  62  68 N12       30.01F
Norwalk Harbor   N/A     75 N/A N/A N10         N/A
Bridgeport     CLOUDY    77  62  59 NE8       29.97F
Meriden        CLOUDY    75  58  55 N8        29.99S
New Haven      CLOUDY    76  57  51 N15       29.97F
Chester        FAIR      72  59  64 N12G18    29.97F
Groton         CLOUDY    71  55  56 N18G25    29.94R
Wilimantic     CLOUDY    72  56  57 N13G22    29.99F

 IN RI

CITY           SKY/WX    TMP DP  RH WIND       PRES   REMARKS
Providence     PTSUNNY   72  49  44 NE20G26   29.97F
Block Island   CLOUDY    69  53  56 N25G36    29.90F
Westerly       MOSUNNY   71  52  50 N16G28    29.94S
 IN MA

CITY           SKY/WX    TMP DP  RH WIND       PRES   REMARKS
Boston         CLOUDY    72  53  51 NE23      30.00S
Worcester      CLOUDY    67  52  58 N10G20    30.04S
Westfield      CLOUDY    77  53  43 NE8       30.01S
Provincetown   CLOUDY    63  52  67 NE28G37   29.93S
Nantucket      CLOUDY    61  60  97 N35G51    29.79S FOG
$$

ANZ330-335-338-340-345-350-353-355-212100-
COASTAL MARINE OBSERVATIONS


STATION/POSITION TIME  SKY/WX   TEMP    WIND        PRES    VSBY  WAVE
                                AIR SEA DIR/SP/G                  HT/PER
                 (UTC)          (F)     (DEG/KT/KT) (MB)    (MI)  (FT/S)
NY HARB ENTRANCE 1850            73 70  360/ 10/ 12 1014.3          3/10
20 S FIRE ISLAND 1850            70 67  360/ 14/ 16 1014.3          6/ 8
GREAT SOUTH BAY  1915            74 71  350/ 12/ 17   N/A
23 SSW MONTAUK P 1950            69 65              1012.4          6/ 9
15 E BARNEGAT LI 1900               69                N/A           4/ 9
HUDSON CANYON    1850            70 70  340/ 19/ 23 1012.0          9/10
KINGS POINT      1936            76 71   30/ 11/ 12 1016.0
EXECUTION ROCKS  1945            77      10/  8/ 12   N/A
WESTERN LI SOUND NOT AVBL
CENTRAL LI SOUND 1915            73      20/ 14/ 17   N/A           1
EASTERN LI SOUND NOT AVBL
ROBBINS REEF     1936            78      30/ 12/ 14 1015.8
$$


>>>>>>>>>>>>>>>>>>>>>>>>>>>> KEY <<<<<<<<<<<<<<<<<<<<<<<<<<<
>                                                          <
>     SKY/WX - Sky Condition/Present Weather               <
>     TMP    - Temperature in Fahrenheit                   <
>     DP     - Dew Point in Fahrenheit                     <
>     RH     - Relative Humidity in Percent                <
>     WIND   - Direction (from) and Speed in MPH           <
>     PRES   - Mean Sea Level Pressure (inches of Hg)      <
>     WCI    - Wind Chill Index                            <
>     VSB    - VISIBILITY IN MILES                         <
>     HX     - HEAT INDEX                                  <
>     TC     - TEMPERATURE IN CELSIUS                      <
>     VRB    - VARIABLE WIND DIRECTION                     <
>                                                          <
>>>>>>>>>>>>>>>>>>>>>>>>>>>> KEY <<<<<<<<<<<<<<<<<<<<<<<<<<<




USA.gov is the U.S. government's official web portal to all federal, state and local government web resources and services.